This is the latest recevied weather packets stored in our database for station/object KB9HUO. If no packets are shown the sender has not sent any weather packets the latest 10 day(s).
| Time | Temp. | Humidity | Pressure | Rain* | Wind** | Luminosity | Snow |
|---|---|---|---|---|---|---|---|
| 1777654706 | 12.22° C | 56% | 1016.7 hPa | 0 mm | - | 262 W/m² | - |
| 1777654404 | 12.78° C | 56% | 1016.6 hPa | 0 mm | - | 108 W/m² | - |
| 1777654101 | 13.33° C | 54% | 1016.6 hPa | 0 mm | - | 44 W/m² | - |
| 1777653799 | 14.44° C | 55% | 1016.6 hPa | 0 mm | - | 88 W/m² | - |
| 1777653494 | 13.89° C | 57% | 1016.6 hPa | 0 mm | - | 259 W/m² | - |
| 1777653192 | 13.33° C | 57% | 1016.6 hPa | 0 mm | - | 825 W/m² | - |
| 1777652889 | 13.33° C | 57% | 1016.5 hPa | 0 mm | - | 163 W/m² | - |
| 1777652585 | 12.78° C | 58% | 1016.5 hPa | 0 mm | - | 174 W/m² | - |
| 1777652281 | 12.22° C | 60% | 1016.5 hPa | 0 mm | - | 795 W/m² | - |
| 1777651979 | 12.22° C | 61% | 1016.5 hPa | 0 mm | - | 169 W/m² | - |
| 1777651675 | 12.22° C | 58% | 1016.7 hPa | 0 mm | - | 83 W/m² | - |
| 1777651372 | 11.67° C | 65% | 1016.4 hPa | 0 mm | - | 111 W/m² | - |
| 1777651070 | 12.22° C | 63% | 1016.6 hPa | 0 mm | - | 102 W/m² | - |
| 1777650766 | 12.22° C | 57% | 1016.2 hPa | 0 mm | - | 74 W/m² | - |
| 1777650463 | 12.78° C | 60% | 1016.4 hPa | 0 mm | - | 118 W/m² | - |
| 1777650160 | 13.89° C | 57% | 1016.3 hPa | 0 mm | - | 169 W/m² | - |
| 1777649858 | 13.89° C | 57% | 1016 hPa | 0 mm | - | 150 W/m² | - |
| 1777649555 | 13.33° C | 56% | 1015.9 hPa | 0 mm | - | 194 W/m² | - |
| 1777649251 | 12.22° C | 60% | 1016 hPa | 0 mm | - | 698 W/m² | - |
| 1777648948 | 12.78° C | 58% | 1015.9 hPa | 0 mm | - | 60 W/m² | - |
| 1777648645 | 13.33° C | 55% | 1015.7 hPa | 0 mm | - | 153 W/m² | - |
| 1777648342 | 12.78° C | 57% | 1015.9 hPa | 0 mm | - | 400 W/m² | - |
| 1777648038 | 12.78° C | 57% | 1015.8 hPa | 0 mm | - | 119 W/m² | - |
| 1777647734 | 12.78° C | 59% | 1015.9 hPa | 0 mm | - | 100 W/m² | - |
| 1777647431 | 13.33° C | 57% | 1015.7 hPa | 0 mm | - | 120 W/m² | - |
* Rain latest hour (hover to see other rain measurements)
** Current wind speed in m/s (hover to see current wind gust speed)